Content
SEND FEEDBACK

Daily
Averages
Monthly
Summary
United States of America

AUBURN, CALIFORNIA


Home > North America > United States > California
Elevation: 1279 feet     Latitude: 38 53N     Longitude: 121 04W

WEATHER
 
SELECT A DAY
Number of Records: 301,958;   Date Range: 8/19/02 - 12/17/14
 
SHARE

PRINT THIS DATA

[ ← Previous Day ]
WEATHER ALMANAC - OCTOBER 12, 2013
[ Next Day → ]
[ °C ]   °F
Weather ElementAverageHighLow
Temperature60.8 °F71.6 °F (1:35 pm)51.8 °F (2:15 am)
Dewpoint39.4 °F42.8 °F (11:55 am)37.4 °F (7:15 am)
Humidity46.9 %62 % (2:15 am)29 % (3:35 pm)
Barometer29.95 in30.00 in (12:35 am)29.89 in (6:15 pm)
Wind Speed5 mph10.4 mph (4:35 pm)
Weather ElementAverage
Visibility10 mi
Wind DirectionESE (122.7 °)

Weather ElementTotal
Precipitation---
Heating Degree Days3.3 (Base 65)
Growing Degree Days11.7 (Base 50)
Averaged from 71 records on October 12, 2013
WEATHER CONDITIONS BREAKOUT
WIND DIRECTION BREAKOUT
WEATHER BY HOUR - OCTOBER 12, 2013
[ °C ]   °F
Local TimeTemperatureDewpointHumidityBarometerVisibilityWind DirectionWind SpeedGust SpeedPrecipitationEventsConditions
12:35 AM53.6 °F39.2 °F58 %30.00 in10.0 miCalmClear
12:55 AM53.6 °F39.2 °F58 %30.00 in10.0 miEast (100°)5.8 mphClear
1:15 AM55.4 °F39.2 °F54 %30.00 in10.0 miESE (110°)5.8 mphClear
1:35 AM55.4 °F39.2 °F54 %30.00 in10.0 miCalmClear
1:55 AM53.6 °F39.2 °F58 %30.00 in10.0 miEast (100°)4.6 mphClear
2:15 AM51.8 °F39.2 °F62 %30.00 in10.0 miEast (90°)3.5 mphClear
2:35 AM51.8 °F39.2 °F62 %29.99 in10.0 miEast (90°)3.5 mphClear
2:55 AM51.8 °F39.2 °F62 %29.99 in10.0 miEast (100°)3.5 mphClear
3:15 AM51.8 °F39.2 °F62 %29.98 in10.0 miEast (100°)4.6 mphClear
3:35 AM51.8 °F39.2 °F62 %29.98 in10.0 miEast (100°)6.9 mphClear
3:55 AM51.8 °F39.2 °F62 %29.97 in10.0 miEast (100°)8.1 mphClear
4:15 AM53.6 °F39.2 °F58 %29.97 in10.0 miEast (100°)6.9 mphClear
4:35 AM51.8 °F39.2 °F62 %29.97 in10.0 miESE (110°)8.1 mphClear
4:55 AM53.6 °F39.2 °F58 %29.97 in10.0 miESE (110°)6.9 mphClear
5:15 AM51.8 °F39.2 °F62 %29.98 in10.0 miESE (110°)9.2 mphClear
5:35 AM51.8 °F39.2 °F62 %29.98 in10.0 miEast (100°)6.9 mphClear
5:55 AM51.8 °F39.2 °F62 %29.98 in10.0 miESE (110°)8.1 mphClear
6:15 AM51.8 °F39.2 °F62 %29.98 in10.0 miEast (100°)5.8 mphClear
6:35 AM51.8 °F39.2 °F62 %29.98 in10.0 miEast (100°)8.1 mphClear
6:55 AM51.8 °F39.2 °F62 %29.98 in10.0 miEast (100°)8.1 mphClear
7:15 AM51.8 °F37.4 °F58 %29.98 in10.0 miESE (110°)8.1 mphClear
7:35 AM51.8 °F39.2 °F62 %29.99 in10.0 miESE (110°)8.1 mphClear
7:55 AM53.6 °F37.4 °F54 %29.99 in10.0 miEast (100°)8.1 mphClear
8:15 AM55.4 °F39.2 °F54 %30.00 in10.0 miEast (90°)8.1 mphClear
8:35 AM57.2 °F39.2 °F51 %30.00 in10.0 miESE (110°)6.9 mphClear
8:55 AM59.0 °F39.2 °F48 %30.00 in10.0 miESE (110°)8.1 mphClear
9:15 AM60.8 °F39.2 °F45 %30.00 in10.0 miESE (110°)5.8 mphClear
9:35 AM62.6 °F39.2 °F42 %30.00 in10.0 miSE (130°)5.8 mphClear
9:55 AM64.4 °F39.2 °F40 %30.00 in10.0 miSE (130°)5.8 mphClear
10:15 AM64.4 °F39.2 °F40 %29.99 in10.0 miSE (140°)3.5 mphClear
10:35 AM66.2 °F41.0 °F40 %29.98 in10.0 miSE (130°)3.5 mphClear
10:55 AM66.2 °F39.2 °F37 %29.98 in10.0 miSouth (190°)4.6 mphClear
11:15 AM68.0 °F39.2 °F35 %29.98 in10.0 miSW (230°)4.6 mphClear
11:35 AM68.0 °F39.2 °F35 %29.98 in10.0 miSSW (200°)3.5 mphClear
11:55 AM69.8 °F42.8 °F38 %29.98 in10.0 miWSW (250°)4.6 mphClear
12:15 PM69.8 °F42.8 °F38 %29.97 in10.0 miWSW (240°)5.8 mphClear
12:35 PM69.8 °F42.8 °F38 %29.96 in10.0 miWest (260°)5.8 mphClear
12:55 PM69.8 °F42.8 °F38 %29.95 in10.0 miWSW (240°)6.9 mphClear
1:15 PM69.8 °F42.8 °F38 %29.94 in10.0 miWest (260°)6.9 mphClear
1:35 PM71.6 °F42.8 °F35 %29.93 in10.0 miCalmClear
1:55 PM71.6 °F42.8 °F35 %29.93 in10.0 miWest (260°)4.6 mphClear
2:15 PM71.6 °F42.8 °F35 %29.93 in10.0 miWSW (250°)6.9 mphClear
2:35 PM71.6 °F41.0 °F33 %29.92 in10.0 miSSW (210°)6.9 mphClear
2:55 PM71.6 °F39.2 °F31 %29.92 in10.0 miWSW (240°)5.8 mphClear
3:15 PM71.6 °F39.2 °F31 %29.92 in10.0 miCalmClear
3:35 PM71.6 °F37.4 °F29 %29.92 in10.0 miWSW (240°)5.8 mphClear
3:55 PM71.6 °F37.4 °F29 %29.92 in10.0 miCalmClear
4:15 PM71.6 °F37.4 °F29 %29.91 in10.0 miSSW (200°)9.2 mphClear
4:35 PM71.6 °F37.4 °F29 %29.90 in10.0 miSW (230°)10.4 mphClear
4:55 PM69.8 °F37.4 °F31 %29.90 in10.0 miWSW (240°)8.1 mphClear
5:15 PM69.8 °F37.4 °F31 %29.90 in10.0 miSSW (200°)5.8 mphClear
5:35 PM69.8 °F37.4 °F31 %29.90 in10.0 miSSW (200°)6.9 mphClear
5:55 PM68.0 °F37.4 °F33 %29.90 in10.0 miSSW (200°)5.8 mphClear
6:15 PM66.2 °F37.4 °F35 %29.89 in10.0 miSSW (200°)5.8 mphClear
6:35 PM66.2 °F39.2 °F37 %29.89 in10.0 miCalmClear
6:55 PM64.4 °F39.2 °F40 %29.89 in10.0 miCalmClear
7:15 PM60.8 °F39.2 °F45 %29.89 in10.0 miCalmClear
7:35 PM60.8 °F39.2 °F45 %29.89 in10.0 miCalmClear
7:55 PM60.8 °F39.2 °F45 %29.89 in10.0 miCalmClear
8:15 PM60.8 °F39.2 °F45 %29.89 in10.0 miSSE (150°)3.5 mphClear
8:35 PM59.0 °F39.2 °F48 %29.89 in10.0 miCalmClear
8:55 PM57.2 °F39.2 °F51 %29.89 in10.0 miSE (140°)3.5 mphClear
9:15 PM57.2 °F39.2 °F51 %29.89 in10.0 miSE (140°)3.5 mphClear
9:35 PM55.4 °F39.2 °F54 %29.89 in10.0 miSE (140°)3.5 mphClear
9:55 PM57.2 °F39.2 °F51 %29.89 in10.0 miCalmClear
10:15 PM57.2 °F39.2 °F51 %29.90 in10.0 miSE (130°)3.5 mphClear
10:35 PM57.2 °F41.0 °F55 %29.90 in10.0 miESE (110°)4.6 mphClear
10:55 PM57.2 °F39.2 °F51 %29.92 in10.0 miNE (50°)5.8 mphMostly Cloudy
11:15 PM59.0 °F39.2 °F48 %29.91 in10.0 miENE (60°)5.8 mphMostly Cloudy
11:35 PM59.0 °F39.2 °F48 %29.91 in10.0 miENE (60°)4.6 mphPartly Cloudy
11:55 PM57.2 °F41.0 °F55 %29.91 in10.0 miEast (90°)5.8 mphClear
Hourly data recorded from KAUN, located miles away from Auburn, California







STORIES FROM OUR PARTNERS